STARLINK-4408 (53206 NORAD) Tracking and Keplerian Element Data

This shows tracking and keplerian element data for the satellite.

Feedback or suggestion? Click here.




ElementValue
Catalog53206
NameSTARLINK-4408
Epoch Orbit1072
Epoch Day270.16256762
Epoch Year2022
RAAN329.9861
Inclination97.653
Eccentricity0.0001899
Argument of Perigee109.7409
Mean Anonmoly250.402
Mean Motion15.0125483
Decay Rate-1.004E-05
L11 53206U 22084T 22270.16256762 -.00001004 00000+0 -73634-4 0 9993
L22 53206 97.6530 329.9861 0001899 109.7409 250.4020 15.01254830 10725

Live tracking and technical data element details for STARLINK-4408 (NORAD 53206). STARLINK-4408 can be tracked NOW for your location showing map with azimuth and elevation plus other details from your city location.

Track the satellite on the map from your city or location and see movement details for azimuth, elevation, latitude, longitude, range, height, and movement on the map or in text.







IsCatalogInMostPopularTable: catalog: 53206, numindb: 3
Update: records affected: 1



GetName: 53206 STARLINK-4408

Hit Count: updated at: Fri, 30 Sep 2022 03:23:10 GMT